Wolf Point, MT

5:00 PM MST on January 16, 2018 (GMT -0700)
Clayton

Weather History for KOLF - March, 2013

Change the Weather History Date:

Sunday, March 31, 2013

  Actual Average Record
Temperature  
Mean Temperature 28 °F -  
Max Temperature 34 °F 52 °F 78 °F (2004)
Min Temperature 22 °F 24 °F 14 °F (2014)
Degree Days  
Heating Degree Days 37    
Cooling Degree Days 0    
Moisture  
Dew Point 23 °F    
Average Humidity 78    
Maximum Humidity 88    
Minimum Humidity 59    
Precipitation  
Precipitation 0.01 in 0.02 in 0.01 in (2005)
Month to date precipitation 0.53 0.46  
Year to date precipitation 0.73 0.98  
Sea Level Pressure  
Sea Level Pressure 30.20 in    
Wind  
Wind Speed 7 mph (ENE)    
Max Wind Speed 14 mph    
Max Gust Speed -    
Visibility 6 miles    
Events Snow    
T = Trace of Precipitation, MM = Missing Value Source: NWS Daily Summary

Daily Weather History Graph

Daily Weather History Graph

Search for Another Location

Airport or City:

Trip Planner

Search our weather history database for the weather conditions in past years. The results will help you decide how hot, cold, wet, or windy it might be!

Date:

Astronomy

Mar. 31, 2013 Rise Set
Actual Time 6:41 AM MDT 7:31 PM MDT
Civil Twilight 6:10 AM MDT 8:03 PM MDT
Nautical Twilight 5:32 AM MDT 8:40 PM MDT
Astronomical Twilight 4:53 AM MDT 9:20 PM MDT
Moon No Moon Rise 9:12 AM MDT (3/31)
Length of Visible Light 13h 52m
Length of Day
12h 49m
Waning Gibbous, 77% of the Moon is Illuminated
Mar 31
Waning Gibbous
Apr 2
Last Quarter
Apr 10
New
Apr 18
First Quarter
Apr 25
Full

Hourly Weather History & Observations

Time (MDT) Temp. Windchill Dew Point Humidity Pressure Visibility Wind Dir Wind Speed Gust Speed Precip Events Conditions
12:53 AM 30.0 °F - 23.0 °F 75% 30.17 in 10.0 mi Calm Calm - N/A   Clear
1:53 AM 30.0 °F 26.5 °F 25.0 °F 82% 30.15 in 10.0 mi North 3.5 mph - N/A   Clear
2:53 AM 30.9 °F 24.3 °F 24.1 °F 76% 30.14 in 10.0 mi ENE 6.9 mph - N/A   Overcast
3:53 AM 30.0 °F 25.2 °F 24.1 °F 79% 30.12 in 10.0 mi ENE 4.6 mph - N/A   Overcast
4:53 AM 30.0 °F 25.2 °F 24.1 °F 79% 30.13 in 10.0 mi ENE 4.6 mph - N/A   Overcast
5:53 AM 30.0 °F 23.2 °F 24.1 °F 79% 30.13 in 10.0 mi ENE 6.9 mph - N/A   Overcast
6:53 AM 30.0 °F 20.0 °F 23.0 °F 75% 30.15 in 10.0 mi ENE 12.7 mph - N/A   Overcast
7:42 AM 28.4 °F 19.1 °F 24.8 °F 86% 30.10 in 2.5 mi ENE 10.4 mph - 0.00 in Snow Light Snow
7:53 AM 28.0 °F 17.5 °F 25.0 °F 88% 30.17 in 3.0 mi ENE 12.7 mph - 0.00 in Snow Light Snow
7:57 AM 28.4 °F 19.1 °F 24.8 °F 86% 30.10 in 1.8 mi ENE 10.4 mph - 0.00 in Snow Light Snow
8:04 AM 28.4 °F 17.5 °F 24.8 °F 86% 30.10 in 1.5 mi ENE 13.8 mph - 0.00 in Snow Light Snow
8:23 AM 28.4 °F 18.5 °F 24.8 °F 86% 30.11 in 1.5 mi ENE 11.5 mph - 0.00 in Snow Light Snow
8:33 AM 28.4 °F 19.1 °F 24.8 °F 86% 30.11 in 1.0 mi East 10.4 mph - N/A Snow Light Snow
8:40 AM 28.4 °F 19.7 °F 24.8 °F 86% 30.11 in 1.5 mi East 9.2 mph - 0.00 in Snow Light Snow
8:47 AM 28.4 °F 18.5 °F 24.8 °F 86% 30.12 in 1.0 mi East 11.5 mph - 0.00 in Snow Light Snow
8:53 AM 28.0 °F 17.5 °F 24.1 °F 85% 30.19 in 1.0 mi ENE 12.7 mph - 0.00 in Snow Light Snow
8:57 AM 28.4 °F 18.5 °F 24.8 °F 86% 30.12 in 1.0 mi ENE 11.5 mph - 0.00 in Snow Light Snow
9:06 AM 28.4 °F 19.7 °F 24.8 °F 86% 30.12 in 0.8 mi ENE 9.2 mph - 0.00 in Snow Light Snow
9:25 AM 28.4 °F 20.4 °F 24.8 °F 86% 30.13 in 0.8 mi ENE 8.1 mph - 0.00 in Snow Light Snow
9:53 AM 28.0 °F 20.8 °F 24.1 °F 85% 30.21 in 0.8 mi ENE 6.9 mph - 0.01 in Snow Light Snow
10:02 AM 28.4 °F 19.7 °F 24.8 °F 86% 30.14 in 1.0 mi East 9.2 mph - 0.00 in Snow Light Snow
10:17 AM 28.4 °F 21.2 °F 23.0 °F 80% 30.15 in 1.0 mi ENE 6.9 mph - 0.00 in Snow Light Snow
10:24 AM 28.4 °F 20.4 °F 24.8 °F 86% 30.15 in 1.8 mi East 8.1 mph - 0.00 in Snow Light Snow
10:53 AM 28.9 °F 21.9 °F 24.1 °F 82% 30.23 in 1.5 mi East 6.9 mph - 0.00 in Snow Light Snow
11:08 AM 28.4 °F 22.2 °F 24.8 °F 86% 30.16 in 1.5 mi East 5.8 mph - 0.00 in Snow Light Snow
11:20 AM 28.4 °F 21.2 °F 24.8 °F 86% 30.17 in 1.5 mi East 6.9 mph - 0.00 in Snow Light Snow
11:31 AM 28.4 °F 21.2 °F 24.8 °F 86% 30.17 in 3.0 mi ENE 6.9 mph - 0.00 in Snow Light Snow
11:43 AM 30.2 °F 23.4 °F 23.0 °F 75% 30.17 in 10.0 mi East 6.9 mph - 0.00 in   Overcast
11:53 AM 30.9 °F 26.2 °F 24.1 °F 76% 30.25 in 9.0 mi ENE 4.6 mph - 0.00 in   Overcast
12:07 PM 30.2 °F 24.3 °F 24.8 °F 80% 30.19 in 10.0 mi East 5.8 mph - N/A   Overcast
12:53 PM 30.9 °F 26.2 °F 21.9 °F 69% 30.28 in 10.0 mi NNE 4.6 mph - N/A   Overcast
1:27 PM 32.0 °F 28.7 °F 21.2 °F 64% 30.21 in 10.0 mi NE 3.5 mph - N/A   Overcast
1:49 PM 32.0 °F 25.6 °F 21.2 °F 64% 30.22 in 10.0 mi ENE 6.9 mph - N/A   Overcast
1:53 PM 32.0 °F 24.8 °F 21.9 °F 66% 30.30 in 10.0 mi NE 8.1 mph - N/A   Overcast
2:12 PM 32.0 °F 26.4 °F 21.2 °F 64% 30.22 in 10.0 mi NE 5.8 mph - N/A   Overcast
2:53 PM 32.0 °F 25.6 °F 21.0 °F 64% 30.30 in 10.0 mi North 6.9 mph - N/A   Overcast
3:53 PM 33.1 °F 26.1 °F 21.0 °F 61% 30.31 in 10.0 mi NNE 8.1 mph - N/A   Overcast
4:53 PM 33.1 °F 27.7 °F 19.9 °F 59% 30.32 in 10.0 mi North 5.8 mph - N/A   Scattered Clouds
5:53 PM 30.9 °F 25.2 °F 19.0 °F 61% 30.32 in 10.0 mi NE 5.8 mph - N/A   Mostly Cloudy
6:53 PM 30.9 °F 26.2 °F 19.0 °F 61% 30.32 in 10.0 mi NE 4.6 mph - N/A   Clear
7:53 PM 27.0 °F 21.6 °F 21.0 °F 78% 30.32 in 10.0 mi ENE 4.6 mph - N/A   Clear
8:53 PM 25.0 °F 19.3 °F 19.9 °F 81% 30.34 in 10.0 mi East 4.6 mph - N/A   Clear
9:53 PM 24.8 °F 20.5 °F 19.4 °F 80% 30.25 in 10.0 mi East 3.5 mph - N/A   Clear
10:53 PM 24.1 °F 17.0 °F 19.9 °F 84% 30.33 in 10.0 mi NE 5.8 mph - N/A   Clear
11:53 PM 23.0 °F 18.4 °F 19.0 °F 85% 30.33 in 10.0 mi East 3.5 mph - N/A   Clear